Location: Unspecified
(50.7693°N, 0.0000°E)
Time: 20:32:14
(UTC+00:00)

Transit 2A - Pass Details

Date: 03 July 2019
Orbit: 595 x 964 km, 66.7° (Epoch: 22 July)

Event Time Altitude Azimuth Distance (km) Brightness Sun altitude
Rises 02:50:47 0° 309° (NW) 3,573 9.5 -7.6°
Reaches altitude 10° 02:54:20 10° 328° (NNW) 2,572 9.0 -7.3°
Maximum altitude 02:58:13 18° 9° (N) 2,013 9.1 -6.9°
Drops below altitude 10° 03:01:54 10° 50° (NE) 2,413 10.3 -6.5°
Sets 03:05:05 0° 70° (ENE) 3,264 10.5 -6.2°
